Location: Amsterdam
(30.7274°N, 84.4357°W)
Time: 02:57:47
(UTC+00:00)

Courier 1B Rocket - Pass Details

Date: 10 February 2026
Orbit: 920 x 1201 km, 28.2° (Epoch: 13 March)

Event Time Altitude Azimuth Distance (km) Brightness Sun altitude
Rises 08:14:20 0° 275° (W) 3,947 - -53.5°
Reaches altitude 10° 08:17:09 10° 270° (W) 3,023 - -52.9°
Maximum altitude 08:24:23 51° 197° (SSW) 1,455 - -51.4°
Exits shadow 08:31:38 11° 125° (SE) 3,052 7.8 -49.9°
Drops below altitude 10° 08:31:52 10° 125° (SE) 3,124 7.9 -49.9°
Sets 08:34:49 0° 120° (ESE) 4,087 8.7 -49.2°
